Meteo Giornale » Osservazioni meteo Gran Bretagna » Leeds And Bradford

ore: 19:20 - Osservazioni Meteo Leeds And Bradford
Lat. 53° 52' N Lon. 1° 39' W Alt. 208 metri s.l.m.

nuvoloso

17 °C

Nuvoloso

Temp. 24 Ore

11 °C

19 °C

Ovest

14.8 Km/h

Dew point 12 °C

Umidità 72 %

Visibilità  10 Km

Il sole sorge alle ore 06:15

Il sole tramonta alle ore 19:57

Data e Ora Cielo e Fenomeni T °C DP °C Um. % Pres. hPa Vis. km Vento km/h
Oggi h: 19:20 nuvoloso Nuvoloso 17 12 72 1017 10 O 14.8
Oggi h: 18:50 nuvoloso Nuvoloso 17 12 72 1017 10 O/SO 14.8
Oggi h: 18:20 nuvoloso Nuvoloso 17 11 67 1017 10 O/SO 20.3
Oggi h: 17:50 nuvoloso Nuvoloso 17 11 67 1017 10 O 24
Oggi h: 17:20 nuvoloso Nuvoloso 17 11 67 1017 10 O 20.3
Oggi h: 16:50 nuvoloso Nuvoloso 18 11 63 1017 10 O/SO 25.9
Oggi h: 16:20 poco_nuvoloso Poco Nuvoloso 18 11 63 1017 10 O/SO 22.2
Oggi h: 15:50 poco_nuvoloso Poco Nuvoloso 18 11 63 1017 10 O/SO 22.2
Oggi h: 15:20 nuvoloso Nuvoloso 18 11 63 1017 10 O 25.9
Oggi h: 14:50 nuvoloso Nuvoloso 19 11 59 1017 10 O/SO 25.9
Oggi h: 14:20 nuvoloso Nuvoloso 18 11 63 1017 10 O/SO 27.8
Oggi h: 13:50 nuvoloso Nuvoloso 19 11 59 1017 10 O/SO 22.2
Oggi h: 13:20 nuvoloso Nuvoloso 18 11 63 1017 10 O/SO 25.9
Oggi h: 12:50 nuvoloso Nuvoloso 17 10 63 1017 10 O 29.6
Oggi h: 12:20 nuvoloso Nuvoloso 18 10 59 1017 10 SO 24
Oggi h: 11:50 poco_nuvoloso Poco Nuvoloso 17 10 63 1017 10 O/SO 29.6
Oggi h: 11:20 poco_nuvoloso Poco Nuvoloso 16 10 67 1017 10 O/SO 25.9
Oggi h: 10:50 poco_nuvoloso Poco Nuvoloso 16 10 67 1017 10 O/SO 31.5
Oggi h: 10:20 poco_nuvoloso Poco Nuvoloso 16 10 67 1017 10 O/SO 27.8
Oggi h: 09:50 poco_nuvoloso Poco Nuvoloso 15 10 72 1017 10 O/SO 24
Oggi h: 09:20 poco_nuvoloso Poco Nuvoloso 15 10 72 1017 10 SO 20.3
Oggi h: 08:50 poco_nuvoloso Poco Nuvoloso 12 10 87 1017 10 SO 20.3
Oggi h: 08:20 poco_nuvoloso Poco Nuvoloso 12 10 87 1017 10 SO 16.7
Oggi h: 07:50 poco_nuvoloso Poco Nuvoloso 12 10 87 1017 10 SO 14.8
Oggi h: 07:20 poco_nuvoloso Poco Nuvoloso 12 10 87 1017 10 SO 14.8
Oggi h: 06:50 poco_nuvoloso Poco Nuvoloso 11 10 93 1017 10 SO 14.8
Oggi h: 06:20 poco_nuvoloso Poco Nuvoloso 11 10 93 1017 10 SO 14.8
Oggi h: 05:50 poco_nuvoloso Poco Nuvoloso 11 10 93 1017 10 SO 14.8
Oggi h: 05:20 sereno Sereno 11 10 93 1017 10 SO 13
Oggi h: 04:50 sereno Sereno 12 10 87 1017 10 SO 14.8
Oggi h: 04:20 sereno Sereno 12 10 87 1017 10 O/SO 14.8
Oggi h: 03:50 sereno Sereno 12 10 87 1017 10 O/SO 16.7
Oggi h: 03:20 sereno Sereno 12 10 87 1017 10 O/SO 18.5
Oggi h: 02:50 sereno Sereno 11 10 93 1017 10 O/SO 14.8
Oggi h: 02:20 sereno Sereno 11 10 93 1017 10 O 13
Oggi h: 01:50 sereno Sereno 11 10 93 1017 10 O 14.8
Oggi h: 01:20 sereno Sereno 11 10 93 1017 10 O 11.1
Oggi h: 00:50 sereno Sereno 12 10 87 1017 10 O 16.7
Oggi h: 00:20 sereno Sereno 12 10 87 1017 10 O 18.5
Ieri h: 23:50 sereno Sereno 12 10 87 1017 10 O 11.1
Ieri h: 23:20 sereno Sereno 12 10 87 1017 10 O 14.8
Ieri h: 22:50 sereno Sereno 13 9 76 1016 10 O 18.5
Ieri h: 22:20 sereno Sereno 13 9 76 1016 10 O 18.5
Ieri h: 21:50 sereno Sereno 13 9 76 1016 10 O 18.5
Ieri h: 21:20 sereno Sereno 14 9 71 1016 10 O 18.5
Ieri h: 20:50 sereno Sereno 14 9 71 1015 10 O 24
Ieri h: 20:20 sereno Sereno 14 9 71 1015 10 O 25.9
Ieri h: 19:50 poco_nuvoloso Poco Nuvoloso 14 9 71 1014 10 O 25.9